Time,TemperatureF,DewpointF,PressureIn,WindDirection,WindDirectionDegrees,WindSpeedMPH,WindSpeedGustMPH,Humidity,HourlyPrecipIn,Conditions,Clouds,dailyrainin,SoftwareType,DateUTC
2013-11-23 00:08:00,46.2,45.4,29.72,SW,225,1.7,-999.0,97,-99.99,,,0.00,Acu-Link.com,2013-11-23 05:08:00,
2013-11-23 00:23:00,46.0,45.2,29.71,WSW,247,2.7,-999.0,97,-99.99,,,0.00,Acu-Link.com,2013-11-23 05:23:00,
2013-11-23 00:38:00,45.7,44.9,29.72,SW,225,2.7,-999.0,97,-99.99,,,0.00,Acu-Link.com,2013-11-23 05:38:00,
2013-11-23 00:53:00,45.9,45.1,29.72,SSW,202,2.2,-999.0,97,-99.99,,,0.00,Acu-Link.com,2013-11-23 05:53:00,
2013-11-23 01:08:00,46.4,45.6,29.72,SSE,157,2.2,-999.0,97,-99.99,,,0.00,Acu-Link.com,2013-11-23 06:08:00,
2013-11-23 01:24:00,46.6,45.2,29.71,SW,225,3.7,-999.0,95,-99.99,,,0.00,Acu-Link.com,2013-11-23 06:24:00,
2013-11-23 01:39:00,46.4,44.5,29.71,North,0,2.2,-999.0,93,-99.99,,,0.00,Acu-Link.com,2013-11-23 06:39:00,
2013-11-23 01:54:00,46.2,43.4,29.70,North,0,6.3,-999.0,90,-99.99,,,0.00,Acu-Link.com,2013-11-23 06:54:00,
2013-11-23 02:09:00,46.0,42.6,29.71,South,180,5.8,-999.0,88,-99.99,,,0.00,Acu-Link.com,2013-11-23 07:09:00,
2013-11-23 02:24:00,45.9,42.3,29.71,North,0,6.3,-999.0,87,-99.99,,,0.00,Acu-Link.com,2013-11-23 07:24:00,
2013-11-23 02:40:00,46.2,41.6,29.70,East,90,3.7,-999.0,84,-99.99,,,0.00,Acu-Link.com,2013-11-23 07:40:00,
2013-11-23 02:55:00,45.5,41.3,29.71,South,180,7.8,-999.0,85,-99.99,,,0.00,Acu-Link.com,2013-11-23 07:55:00,
2013-11-23 03:10:00,45.1,40.9,29.71,North,0,6.8,-999.0,85,-99.99,,,0.00,Acu-Link.com,2013-11-23 08:10:00,
2013-11-23 03:25:00,45.1,38.0,29.70,SE,135,7.8,-999.0,76,-99.99,,,0.00,Acu-Link.com,2013-11-23 08:25:00,
2013-11-23 03:40:00,44.6,37.2,29.71,NNE,22,4.7,-999.0,75,-99.99,,,0.00,Acu-Link.com,2013-11-23 08:40:00,
2013-11-23 03:56:00,44.2,35.0,29.72,South,180,4.2,-999.0,70,-99.99,,,0.00,Acu-Link.com,2013-11-23 08:56:00,
2013-11-23 04:11:00,43.3,34.9,29.73,West,270,3.2,-999.0,72,-99.99,,,0.00,Acu-Link.com,2013-11-23 09:11:00,
2013-11-23 04:26:00,43.2,34.1,29.73,SSE,157,5.3,-999.0,70,-99.99,,,0.00,Acu-Link.com,2013-11-23 09:26:00,
2013-11-23 04:41:00,42.6,33.5,29.73,East,90,6.3,-999.0,70,-99.99,,,0.00,Acu-Link.com,2013-11-23 09:41:00,
2013-11-23 04:56:00,42.1,33.0,29.74,WNW,292,5.3,-999.0,70,-99.99,,,0.00,Acu-Link.com,2013-11-23 09:56:00,
2013-11-23 05:12:00,41.5,32.8,29.75,NW,315,3.7,-999.0,71,-99.99,,,0.00,Acu-Link.com,2013-11-23 10:12:00,
2013-11-23 05:27:00,40.8,32.5,29.75,ESE,112,2.7,-999.0,72,-99.99,,,0.00,Acu-Link.com,2013-11-23 10:27:00,
2013-11-23 05:42:00,40.3,32.0,29.76,East,90,5.8,-999.0,72,-99.99,,,0.00,Acu-Link.com,2013-11-23 10:42:00,
2013-11-23 05:57:00,39.7,31.8,29.75,SSW,202,5.8,-999.0,73,-99.99,,,0.00,Acu-Link.com,2013-11-23 10:57:00,
2013-11-23 06:13:00,39.6,31.3,29.76,ESE,112,9.4,-999.0,72,-99.99,,,0.00,Acu-Link.com,2013-11-23 11:13:00,
2013-11-23 06:28:00,39.2,31.3,29.78,West,270,6.3,-999.0,73,-99.99,,,0.00,Acu-Link.com,2013-11-23 11:28:00,
2013-11-23 06:43:00,38.7,31.1,29.77,NNE,22,2.7,-999.0,74,-99.99,,,0.00,Acu-Link.com,2013-11-23 11:43:00,
2013-11-23 06:58:00,38.1,30.6,29.78,SE,135,9.4,-999.0,74,-99.99,,,0.00,Acu-Link.com,2013-11-23 11:58:00,
2013-11-23 07:13:00,37.8,30.3,29.80,WSW,247,5.3,-999.0,74,-99.99,,,0.00,Acu-Link.com,2013-11-23 12:13:00,
2013-11-23 07:29:00,37.8,30.3,29.80,NE,45,9.4,-999.0,74,-99.99,,,0.00,Acu-Link.com,2013-11-23 12:29:00,
2013-11-23 07:44:00,37.4,29.9,29.81,North,0,5.3,-999.0,74,-99.99,,,0.00,Acu-Link.com,2013-11-23 12:44:00,
2013-11-23 07:59:00,37.4,29.9,29.80,ESE,112,3.7,-999.0,74,-99.99,,,0.00,Acu-Link.com,2013-11-23 12:59:00,
2013-11-23 08:14:00,37.2,29.7,29.82,WSW,247,3.2,-999.0,74,-99.99,,,0.00,Acu-Link.com,2013-11-23 13:14:00,
2013-11-23 08:29:00,37.6,29.4,29.82,SSE,157,4.2,-999.0,72,-99.99,,,0.00,Acu-Link.com,2013-11-23 13:29:00,
2013-11-23 08:45:00,38.3,29.4,29.81,North,0,3.2,-999.0,70,-99.99,,,0.00,Acu-Link.com,2013-11-23 13:45:00,
2013-11-23 09:00:00,38.5,28.9,29.82,SW,225,6.3,-999.0,68,-99.99,,,0.00,Acu-Link.com,2013-11-23 14:00:00,
2013-11-23 09:15:00,39.0,28.2,29.81,SW,225,3.7,-999.0,65,-99.99,,,0.00,Acu-Link.com,2013-11-23 14:15:00,
2013-11-23 09:31:00,39.2,28.8,29.81,WSW,247,3.7,-999.0,66,-99.99,,,0.00,Acu-Link.com,2013-11-23 14:31:00,
2013-11-23 09:46:00,39.4,28.3,29.81,North,0,3.7,-999.0,64,-99.99,,,0.00,Acu-Link.com,2013-11-23 14:46:00,
2013-11-23 10:01:00,39.9,28.3,29.81,NNW,337,4.2,-999.0,63,-99.99,,,0.00,Acu-Link.com,2013-11-23 15:01:00,
2013-11-23 10:16:00,39.4,27.1,29.81,South,180,4.2,-999.0,61,-99.99,,,0.00,Acu-Link.com,2013-11-23 15:16:00,
2013-11-23 10:31:00,39.7,26.6,29.81,NNW,337,6.8,-999.0,59,-99.99,,,0.00,Acu-Link.com,2013-11-23 15:31:00,
2013-11-23 10:47:00,40.1,26.1,29.80,NNE,22,5.3,-999.0,57,-99.99,,,0.00,Acu-Link.com,2013-11-23 15:47:00,
2013-11-23 11:02:00,40.5,25.6,29.78,WSW,247,4.2,-999.0,55,-99.99,,,0.00,Acu-Link.com,2013-11-23 16:02:00,
2013-11-23 11:17:00,40.6,24.8,29.78,SE,135,6.3,-999.0,53,-99.99,,,0.00,Acu-Link.com,2013-11-23 16:17:00,
2013-11-23 11:32:00,41.7,23.0,29.78,North,0,5.8,-999.0,47,-99.99,,,0.00,Acu-Link.com,2013-11-23 16:32:00,
2013-11-23 11:48:00,42.3,22.0,29.78,NNE,22,8.3,-999.0,44,-99.99,,,0.00,Acu-Link.com,2013-11-23 16:48:00,
2013-11-23 12:03:00,43.7,22.1,29.77,North,0,6.3,-999.0,42,-99.99,,,0.00,Acu-Link.com,2013-11-23 17:03:00,
2013-11-23 12:18:00,43.9,21.7,29.76,NNE,22,6.8,-999.0,41,-99.99,,,0.00,Acu-Link.com,2013-11-23 17:18:00,
2013-11-23 12:33:00,43.7,20.4,29.76,WNW,292,5.3,-999.0,39,-99.99,,,0.00,Acu-Link.com,2013-11-23 17:33:00,
2013-11-23 12:48:00,44.1,20.7,29.74,NNE,22,5.8,-999.0,39,-99.99,,,0.00,Acu-Link.com,2013-11-23 17:48:00,
2013-11-23 13:04:00,43.3,18.2,29.73,SSW,202,3.7,-999.0,36,-99.99,,,0.00,Acu-Link.com,2013-11-23 18:04:00,
2013-11-23 13:19:00,44.1,19.5,29.73,NW,315,8.9,-999.0,37,-99.99,,,0.00,Acu-Link.com,2013-11-23 18:19:00,
2013-11-23 13:34:00,43.2,18.1,29.73,NNE,22,5.8,-999.0,36,-99.99,,,0.00,Acu-Link.com,2013-11-23 18:34:00,
2013-11-23 13:49:00,43.5,20.2,29.73,West,270,3.2,-999.0,39,-99.99,,,0.00,Acu-Link.com,2013-11-23 18:49:00,
2013-11-23 14:04:00,43.5,20.8,29.73,South,180,5.3,-999.0,40,-99.99,,,0.00,Acu-Link.com,2013-11-23 19:04:00,
2013-11-23 14:20:00,42.8,22.4,29.73,West,270,5.8,-999.0,44,-99.99,,,0.00,Acu-Link.com,2013-11-23 19:20:00,
2013-11-23 14:35:00,42.4,19.2,29.73,WNW,292,3.7,-999.0,39,-99.99,,,0.00,Acu-Link.com,2013-11-23 19:35:00,
2013-11-23 14:50:00,42.4,21.5,29.72,NW,315,6.8,-999.0,43,-99.99,,,0.00,Acu-Link.com,2013-11-23 19:50:00,
2013-11-23 15:05:00,43.2,20.5,29.73,ESE,112,3.7,-999.0,40,-99.99,,,0.00,Acu-Link.com,2013-11-23 20:05:00,
2013-11-23 15:20:00,42.4,21.5,29.73,East,90,3.7,-999.0,43,-99.99,,,0.00,Acu-Link.com,2013-11-23 20:20:00,
2013-11-23 15:36:00,39.9,18.7,29.73,WNW,292,5.8,-999.0,42,-99.99,,,0.00,Acu-Link.com,2013-11-23 20:36:00,
2013-11-23 15:51:00,39.0,17.9,29.73,SE,135,4.2,-999.0,42,-99.99,,,0.00,Acu-Link.com,2013-11-23 20:51:00,
2013-11-23 16:06:00,37.9,18.0,29.74,NNE,22,7.8,-999.0,44,-99.99,,,0.00,Acu-Link.com,2013-11-23 21:06:00,
2013-11-23 16:21:00,37.0,18.7,29.74,SW,225,3.7,-999.0,47,-99.99,,,0.00,Acu-Link.com,2013-11-23 21:21:00,
2013-11-23 16:36:00,36.5,19.2,29.73,NE,45,4.2,-999.0,49,-99.99,,,0.00,Acu-Link.com,2013-11-23 21:36:00,
2013-11-23 16:51:00,36.0,19.6,29.73,SSW,202,4.2,-999.0,51,-99.99,,,0.00,Acu-Link.com,2013-11-23 21:51:00,
2013-11-23 17:07:00,35.2,20.2,29.72,SSW,202,4.7,-999.0,54,-99.99,,,0.00,Acu-Link.com,2013-11-23 22:07:00,
2013-11-23 17:22:00,35.2,19.8,29.73,West,270,3.7,-999.0,53,-99.99,,,0.00,Acu-Link.com,2013-11-23 22:22:00,
2013-11-23 17:37:00,34.9,20.4,29.72,NE,45,5.3,-999.0,55,-99.99,,,0.00,Acu-Link.com,2013-11-23 22:37:00,
2013-11-23 17:52:00,34.7,19.8,29.72,SSE,157,2.2,-999.0,54,-99.99,,,0.00,Acu-Link.com,2013-11-23 22:52:00,
2013-11-23 18:08:00,34.2,19.7,29.71,NNE,22,4.2,-999.0,55,-99.99,,,0.00,Acu-Link.com,2013-11-23 23:08:00,
2013-11-23 18:23:00,34.2,19.3,29.73,SSW,202,3.2,-999.0,54,-99.99,,,0.00,Acu-Link.com,2013-11-23 23:23:00,
2013-11-23 18:38:00,34.2,19.3,29.71,SSW,202,4.7,-999.0,54,-99.99,,,0.00,Acu-Link.com,2013-11-23 23:38:00,
2013-11-23 18:53:00,34.0,18.7,29.73,SW,225,2.2,-999.0,53,-99.99,,,0.00,Acu-Link.com,2013-11-23 23:53:00,
2013-11-23 19:08:00,34.0,19.1,29.72,SSE,157,3.7,-999.0,54,-99.99,,,0.00,Acu-Link.com,2013-11-24 00:08:00,
2013-11-23 19:23:00,33.1,20.0,29.71,SSW,202,2.7,-999.0,58,-99.99,,,0.00,Acu-Link.com,2013-11-24 00:23:00,
2013-11-23 19:38:00,33.6,19.2,29.71,ENE,67,3.2,-999.0,55,-99.99,,,0.00,Acu-Link.com,2013-11-24 00:38:00,
2013-11-23 19:54:00,33.6,20.0,29.71,SW,225,4.7,-999.0,57,-99.99,,,0.00,Acu-Link.com,2013-11-24 00:54:00,
2013-11-23 20:09:00,33.4,20.6,29.72,ESE,112,4.7,-999.0,59,-99.99,,,0.00,Acu-Link.com,2013-11-24 01:09:00,
2013-11-23 20:24:00,33.6,21.6,29.72,NE,45,6.3,-999.0,61,-99.99,,,0.00,Acu-Link.com,2013-11-24 01:24:00,
2013-11-23 20:40:00,32.7,21.1,29.71,ENE,67,4.2,-999.0,62,-99.99,,,0.00,Acu-Link.com,2013-11-24 01:40:00,
2013-11-23 20:55:00,31.8,21.8,29.70,West,270,6.8,-999.0,66,-99.99,,,0.00,Acu-Link.com,2013-11-24 01:55:00,
2013-11-23 21:10:00,31.5,21.5,29.71,ESE,112,3.7,-999.0,66,-99.99,,,0.00,Acu-Link.com,2013-11-24 02:10:00,
2013-11-23 21:25:00,31.3,21.6,29.72,SSW,202,3.7,-999.0,67,-99.99,,,0.00,Acu-Link.com,2013-11-24 02:25:00,
2013-11-23 21:40:00,29.7,23.1,29.74,NNE,22,6.3,-999.0,76,-99.99,,,0.00,Acu-Link.com,2013-11-24 02:40:00,
2013-11-23 21:55:00,29.1,21.2,29.72,NNW,337,9.9,-999.0,72,-99.99,,,0.00,Acu-Link.com,2013-11-24 02:55:00,
2013-11-23 22:10:00,28.8,20.3,29.72,WSW,247,4.7,-999.0,70,-99.99,,,0.00,Acu-Link.com,2013-11-24 03:10:00,
2013-11-23 22:25:00,28.4,20.2,29.73,North,0,3.2,-999.0,71,-99.99,,,0.00,Acu-Link.com,2013-11-24 03:25:00,
2013-11-23 22:41:00,28.4,19.9,29.72,SSW,202,9.4,-999.0,70,-99.99,,,0.00,Acu-Link.com,2013-11-24 03:41:00,
2013-11-23 22:56:00,28.4,18.5,29.72,West,270,4.7,-999.0,66,-99.99,,,0.00,Acu-Link.com,2013-11-24 03:56:00,
2013-11-23 23:11:00,27.9,16.6,29.73,NNW,337,4.2,-999.0,62,-99.99,,,0.00,Acu-Link.com,2013-11-24 04:11:00,
2013-11-23 23:26:00,27.7,16.4,29.72,NE,45,6.8,-999.0,62,-99.99,,,0.00,Acu-Link.com,2013-11-24 04:26:00,
2013-11-23 23:41:00,27.5,16.6,29.72,East,90,5.3,-999.0,63,-99.99,,,0.00,Acu-Link.com,2013-11-24 04:41:00,
2013-11-23 23:56:00,27.1,16.6,29.72,WSW,247,3.7,-999.0,64,-99.99,,,0.00,Acu-Link.com,2013-11-24 04:56:00,